User: anonymous
Location: Caltech
(34.1382°N, 118.1253°W)
Time: 08:08:58
(UTC-07:00)
Language:

ITAMSAT 1 - Orbit

View from above orbital plane
View from above orbital plane
View from above satellite
View from above satellite

Ground track
Ground track

The orbit data is extracted from the following two-line orbital elements,

1 22826U 93061D   14293.83700943  .00000288  00000-0  12852-3 0  5582
2 22826 098.6709 239.5241 0007811 282.6691 077.3618 14.30068857 98874
Epoch (UTC): 20 October 2014 20:05:17
Eccentricity: 0.0007811
inclination: 98.6709°
perigee height: 786 km
apogee height: 797 km
right ascension of ascending node: 239.5241°
argument of perigee: 282.6691°
revolutions per day: 14.30068857
mean anomaly at epoch: 77.3618°
orbit number at epoch: 9887

The dashed part of the orbit path shows where the satellite is in the earth's shadow,  

DLR